Time,TemperatureF,DewpointF,PressureIn,WindDirection,WindDirectionDegrees,WindSpeedMPH,WindSpeedGustMPH,Humidity,HourlyPrecipIn,Conditions,Clouds,dailyrainin,SolarRadiationWatts/m^2,SoftwareType,DateUTC
2013-07-14 00:01:00,75.9,73.0,30.27,SSW,201,5.0,7.0,91,0.00,,,0.00,0.0,meteohub,2013-07-14 04:01:00,
2013-07-14 00:03:00,75.9,73.0,30.27,SW,236,5.0,7.0,91,0.00,,,0.00,0.0,meteohub,2013-07-14 04:03:00,
2013-07-14 00:04:00,75.9,73.0,30.27,South,187,6.0,7.0,91,0.00,,,0.00,0.0,meteohub,2013-07-14 04:04:00,
2013-07-14 00:09:00,75.9,73.0,30.27,WSW,252,6.0,7.0,91,0.00,,,0.00,0.0,meteohub,2013-07-14 04:09:00,
2013-07-14 00:14:00,75.9,73.0,30.27,SW,229,2.0,7.0,91,0.00,,,0.00,0.0,meteohub,2013-07-14 04:14:00,
2013-07-14 00:20:00,75.9,72.9,30.27,SW,228,0.0,8.0,90,0.00,,,0.00,0.0,meteohub,2013-07-14 04:20:00,
2013-07-14 00:25:00,75.9,72.9,30.27,WSW,243,0.0,8.0,90,0.00,,,0.00,0.0,meteohub,2013-07-14 04:25:00,
2013-07-14 00:30:00,75.9,73.0,30.27,SSW,212,3.0,7.0,91,0.00,,,0.00,0.0,meteohub,2013-07-14 04:30:00,
2013-07-14 00:35:00,75.7,72.9,30.27,WSW,241,4.0,8.0,91,0.00,,,0.00,0.0,meteohub,2013-07-14 04:35:00,
2013-07-14 00:40:00,75.7,72.9,30.27,SSW,193,5.0,8.0,91,0.00,,,0.00,0.0,meteohub,2013-07-14 04:40:00,
2013-07-14 00:45:00,75.7,72.9,30.27,SW,216,0.0,8.0,91,0.00,,,0.00,0.0,meteohub,2013-07-14 04:45:00,
2013-07-14 00:50:00,75.6,72.7,30.27,WSW,238,0.0,8.0,91,0.00,,,0.00,0.0,meteohub,2013-07-14 04:50:00,
2013-07-14 00:55:00,75.6,72.7,30.27,SW,215,0.0,7.0,91,0.00,,,0.00,0.0,meteohub,2013-07-14 04:55:00,
2013-07-14 01:00:00,75.6,72.7,30.27,WNW,300,3.0,7.0,91,0.00,,,0.00,0.0,meteohub,2013-07-14 05:00:00,
2013-07-14 01:06:00,75.6,72.7,30.27,SW,234,1.0,7.0,91,0.00,,,0.00,0.0,meteohub,2013-07-14 05:06:00,
2013-07-14 01:11:00,75.4,72.5,30.27,SW,234,5.0,7.0,91,0.00,,,0.00,0.0,meteohub,2013-07-14 05:11:00,
2013-07-14 01:16:00,75.4,72.9,30.27,WSW,240,0.0,11.0,92,0.00,,,0.00,0.0,meteohub,2013-07-14 05:16:00,
2013-07-14 01:21:00,75.4,72.9,30.27,WSW,241,4.0,11.0,92,0.00,,,0.00,0.0,meteohub,2013-07-14 05:21:00,
2013-07-14 01:26:00,75.4,72.9,30.27,SW,218,4.0,11.0,92,0.00,,,0.00,0.0,meteohub,2013-07-14 05:26:00,
2013-07-14 01:31:00,75.6,72.7,30.27,SW,218,3.0,8.0,91,0.00,,,0.00,0.0,meteohub,2013-07-14 05:31:00,
2013-07-14 01:36:00,75.6,72.7,30.27,West,259,0.0,7.0,91,0.00,,,0.00,0.0,meteohub,2013-07-14 05:36:00,
2013-07-14 01:41:00,75.6,72.7,30.27,SW,227,0.0,6.0,91,0.00,,,0.00,0.0,meteohub,2013-07-14 05:41:00,
2013-07-14 01:46:00,75.6,72.7,30.28,West,281,2.0,6.0,91,0.00,,,0.00,0.0,meteohub,2013-07-14 05:46:00,
2013-07-14 01:52:00,75.6,72.7,30.27,WSW,238,4.0,6.0,91,0.00,,,0.00,0.0,meteohub,2013-07-14 05:52:00,
2013-07-14 01:57:00,75.6,72.7,30.28,NW,311,2.0,6.0,91,0.00,,,0.00,0.0,meteohub,2013-07-14 05:57:00,
2013-07-14 02:02:00,75.6,73.0,30.27,WNW,283,1.0,6.0,92,0.00,,,0.00,0.0,meteohub,2013-07-14 06:02:00,
2013-07-14 02:07:00,75.7,72.9,30.27,WSW,244,0.0,7.0,91,0.00,,,0.00,0.0,meteohub,2013-07-14 06:07:00,
2013-07-14 02:12:00,75.7,72.9,30.28,SW,223,1.0,8.0,91,0.00,,,0.00,0.0,meteohub,2013-07-14 06:12:00,
2013-07-14 02:17:00,75.7,73.2,30.28,North,355,0.0,8.0,92,0.00,,,0.00,0.0,meteohub,2013-07-14 06:17:00,
2013-07-14 02:22:00,75.6,73.0,30.28,NNW,330,0.0,8.0,92,0.00,,,0.00,0.0,meteohub,2013-07-14 06:22:00,
2013-07-14 02:27:00,75.6,73.0,30.28,SSW,207,0.0,6.0,92,0.00,,,0.00,0.0,meteohub,2013-07-14 06:27:00,
2013-07-14 02:32:00,75.6,73.0,30.28,SW,219,0.0,6.0,92,0.00,,,0.00,0.0,meteohub,2013-07-14 06:32:00,
2013-07-14 02:37:00,75.4,72.9,30.28,WSW,244,0.0,6.0,92,0.00,,,0.00,0.0,meteohub,2013-07-14 06:37:00,
2013-07-14 02:42:00,75.4,72.9,30.28,WSW,244,0.0,5.0,92,0.00,,,0.00,0.0,meteohub,2013-07-14 06:42:00,
2013-07-14 02:47:00,75.4,72.9,30.28,WSW,245,2.0,5.0,92,0.00,,,0.00,0.0,meteohub,2013-07-14 06:47:00,
2013-07-14 02:52:00,75.2,73.0,30.28,WNW,302,1.0,5.0,93,0.00,,,0.00,0.0,meteohub,2013-07-14 06:52:00,
2013-07-14 02:57:00,75.2,73.0,30.28,SW,221,0.0,5.0,93,0.00,,,0.00,0.0,meteohub,2013-07-14 06:57:00,
2013-07-14 03:02:00,75.0,72.9,30.28,SW,221,0.0,5.0,93,0.00,,,0.00,0.0,meteohub,2013-07-14 07:02:00,
2013-07-14 03:07:00,75.0,72.9,30.28,SW,221,0.0,4.0,93,0.00,,,0.00,0.0,meteohub,2013-07-14 07:07:00,
2013-07-14 03:12:00,75.0,72.9,30.29,SW,221,0.0,4.0,93,0.00,,,0.00,0.0,meteohub,2013-07-14 07:12:00,
2013-07-14 03:17:00,75.0,73.2,30.29,SW,224,0.0,5.0,94,0.00,,,0.00,0.0,meteohub,2013-07-14 07:17:00,
2013-07-14 03:22:00,74.8,73.0,30.29,SW,224,0.0,5.0,94,0.00,,,0.00,0.0,meteohub,2013-07-14 07:22:00,
2013-07-14 03:27:00,74.8,73.0,30.28,SW,224,0.0,5.0,94,0.00,,,0.00,0.0,meteohub,2013-07-14 07:27:00,
2013-07-14 03:32:00,74.8,73.0,30.28,SW,224,0.0,1.0,94,0.00,,,0.00,0.0,meteohub,2013-07-14 07:32:00,
2013-07-14 03:37:00,74.8,73.0,30.29,SW,224,0.0,3.0,94,0.00,,,0.00,0.0,meteohub,2013-07-14 07:37:00,
2013-07-14 03:42:00,74.7,72.9,30.29,SW,224,0.0,3.0,94,0.00,,,0.00,0.0,meteohub,2013-07-14 07:42:00,
2013-07-14 03:47:00,74.7,72.9,30.29,SW,224,0.0,3.0,94,0.00,,,0.00,0.0,meteohub,2013-07-14 07:47:00,
2013-07-14 03:52:00,74.7,72.9,30.29,SW,224,0.0,1.0,94,0.00,,,0.00,0.0,meteohub,2013-07-14 07:52:00,
2013-07-14 03:57:00,74.7,72.9,30.29,SW,224,0.0,3.0,94,0.00,,,0.00,0.0,meteohub,2013-07-14 07:57:00,
2013-07-14 04:02:00,74.5,72.7,30.29,SW,224,0.0,3.0,94,0.00,,,0.00,0.0,meteohub,2013-07-14 08:02:00,
2013-07-14 04:07:00,74.5,72.7,30.29,SW,224,0.0,3.0,94,0.00,,,0.00,0.0,meteohub,2013-07-14 08:07:00,
2013-07-14 04:12:00,74.5,72.7,30.29,SW,224,0.0,1.0,94,0.00,,,0.00,0.0,meteohub,2013-07-14 08:12:00,
2013-07-14 04:17:00,74.5,72.7,30.29,SW,224,0.0,0.0,94,0.00,,,0.00,0.0,meteohub,2013-07-14 08:17:00,
2013-07-14 04:22:00,74.3,72.5,30.30,SW,224,0.0,0.0,94,0.00,,,0.00,0.0,meteohub,2013-07-14 08:22:00,
2013-07-14 04:27:00,74.3,72.9,30.30,SW,224,0.0,1.0,95,0.00,,,0.00,0.0,meteohub,2013-07-14 08:27:00,
2013-07-14 04:32:00,74.3,72.9,30.30,SW,224,0.0,2.0,95,0.00,,,0.00,0.0,meteohub,2013-07-14 08:32:00,
2013-07-14 04:37:00,74.5,73.0,30.30,SW,224,0.0,2.0,95,0.00,,,0.00,0.0,meteohub,2013-07-14 08:37:00,
2013-07-14 04:42:00,74.5,73.0,30.30,SW,224,0.0,1.0,95,0.00,,,0.00,0.0,meteohub,2013-07-14 08:42:00,
2013-07-14 04:47:00,74.5,73.0,30.30,SW,224,0.0,1.0,95,0.00,,,0.00,0.0,meteohub,2013-07-14 08:47:00,
2013-07-14 04:52:00,74.5,73.0,30.30,SW,224,0.0,1.0,95,0.00,,,0.00,0.0,meteohub,2013-07-14 08:52:00,
2013-07-14 04:57:00,74.5,73.0,30.31,SW,224,0.0,1.0,95,0.00,,,0.00,0.0,meteohub,2013-07-14 08:57:00,
2013-07-14 05:02:00,74.5,73.0,30.31,SW,224,0.0,1.0,95,0.00,,,0.00,0.0,meteohub,2013-07-14 09:02:00,
2013-07-14 05:07:00,74.7,73.2,30.31,SW,224,0.0,1.0,95,0.00,,,0.00,0.0,meteohub,2013-07-14 09:07:00,
2013-07-14 05:12:00,74.7,73.2,30.31,SW,224,0.0,1.0,95,0.00,,,0.00,0.0,meteohub,2013-07-14 09:12:00,
2013-07-14 05:17:00,74.7,73.2,30.31,SW,224,0.0,0.0,95,0.00,,,0.00,0.0,meteohub,2013-07-14 09:17:00,
2013-07-14 05:22:00,74.7,73.2,30.32,SW,224,0.0,1.0,95,0.00,,,0.00,0.0,meteohub,2013-07-14 09:22:00,
2013-07-14 05:27:00,74.5,73.0,30.32,SW,224,0.0,1.0,95,0.00,,,0.00,0.0,meteohub,2013-07-14 09:27:00,
2013-07-14 05:32:00,74.7,73.2,30.32,SW,224,0.0,1.0,95,0.00,,,0.00,0.0,meteohub,2013-07-14 09:32:00,
2013-07-14 05:37:00,74.5,73.0,30.32,SW,224,0.0,1.0,95,0.00,,,0.00,0.0,meteohub,2013-07-14 09:37:00,
2013-07-14 05:42:00,74.5,73.0,30.32,SW,224,0.0,1.0,95,0.00,,,0.00,0.0,meteohub,2013-07-14 09:42:00,
2013-07-14 05:47:00,74.5,73.0,30.32,SW,224,0.0,0.0,95,0.00,,,0.00,0.0,meteohub,2013-07-14 09:47:00,
2013-07-14 05:52:00,74.5,73.0,30.32,SW,224,0.0,1.0,95,0.00,,,0.00,5.0,meteohub,2013-07-14 09:52:00,
2013-07-14 05:57:00,74.5,73.0,30.32,SW,224,0.0,1.0,95,0.00,,,0.00,9.0,meteohub,2013-07-14 09:57:00,
2013-07-14 06:02:00,74.5,73.0,30.32,SW,224,0.0,1.0,95,0.00,,,0.00,11.0,meteohub,2013-07-14 10:02:00,
2013-07-14 06:07:00,74.5,73.2,30.32,SW,224,0.0,2.0,96,0.00,,,0.00,16.0,meteohub,2013-07-14 10:07:00,
2013-07-14 06:12:00,74.5,73.0,30.32,SW,224,0.0,2.0,95,0.00,,,0.00,18.0,meteohub,2013-07-14 10:12:00,
2013-07-14 06:17:00,74.7,73.2,30.32,SW,224,0.0,2.0,95,0.00,,,0.00,23.0,meteohub,2013-07-14 10:17:00,
2013-07-14 06:22:00,74.7,73.2,30.32,SW,224,0.0,2.0,95,0.00,,,0.00,25.0,meteohub,2013-07-14 10:22:00,
2013-07-14 06:27:00,74.7,73.2,30.32,SW,224,0.0,1.0,95,0.00,,,0.00,33.0,meteohub,2013-07-14 10:27:00,
2013-07-14 06:32:00,74.8,73.2,30.32,SW,224,0.0,1.0,95,0.00,,,0.00,44.0,meteohub,2013-07-14 10:32:00,
2013-07-14 06:37:00,74.8,73.2,30.32,SW,224,1.0,1.0,95,0.00,,,0.00,51.0,meteohub,2013-07-14 10:37:00,
2013-07-14 06:42:00,75.0,73.4,30.33,SW,224,0.0,3.0,95,0.00,,,0.00,60.0,meteohub,2013-07-14 10:42:00,
2013-07-14 06:47:00,75.0,73.4,30.33,SW,224,0.0,3.0,95,0.00,,,0.00,74.0,meteohub,2013-07-14 10:47:00,
2013-07-14 06:52:00,75.4,73.8,30.33,SW,224,0.0,3.0,95,0.00,,,0.00,111.0,meteohub,2013-07-14 10:52:00,
2013-07-14 06:57:00,75.6,73.9,30.33,SW,224,0.0,2.0,95,0.00,,,0.00,107.0,meteohub,2013-07-14 10:57:00,
2013-07-14 07:02:00,75.7,73.9,30.33,SW,229,1.0,2.0,94,0.00,,,0.00,135.0,meteohub,2013-07-14 11:02:00,
2013-07-14 07:07:00,75.7,73.9,30.34,SW,229,1.0,3.0,94,0.00,,,0.00,197.0,meteohub,2013-07-14 11:07:00,
2013-07-14 07:12:00,76.1,74.3,30.33,SW,229,0.0,3.0,94,0.00,,,0.00,218.0,meteohub,2013-07-14 11:12:00,
2013-07-14 07:17:00,76.5,74.3,30.33,WSW,238,0.0,3.0,93,0.00,,,0.00,223.0,meteohub,2013-07-14 11:17:00,
2013-07-14 07:22:00,76.6,74.1,30.33,SW,236,0.0,5.0,92,0.00,,,0.00,206.0,meteohub,2013-07-14 11:22:00,
2013-07-14 07:27:00,76.8,73.9,30.33,WSW,242,0.0,5.0,91,0.00,,,0.00,237.0,meteohub,2013-07-14 11:27:00,
2013-07-14 07:32:00,77.0,74.1,30.33,SW,234,3.0,4.0,91,0.00,,,0.00,257.0,meteohub,2013-07-14 11:32:00,
2013-07-14 07:37:00,77.2,73.9,30.33,SSW,199,0.0,6.0,90,0.00,,,0.00,276.0,meteohub,2013-07-14 11:37:00,
2013-07-14 07:42:00,77.4,73.9,30.33,SSW,203,0.0,6.0,89,0.00,,,0.00,272.0,meteohub,2013-07-14 11:42:00,
2013-07-14 07:47:00,77.5,74.1,30.33,WNW,301,1.0,7.0,89,0.00,,,0.00,288.0,meteohub,2013-07-14 11:47:00,
2013-07-14 07:52:00,77.7,73.9,30.33,WSW,251,1.0,7.0,88,0.00,,,0.00,299.0,meteohub,2013-07-14 11:52:00,
2013-07-14 07:57:00,77.9,74.1,30.33,WSW,251,1.0,7.0,88,0.00,,,0.00,309.0,meteohub,2013-07-14 11:57:00,
2013-07-14 08:02:00,78.1,73.9,30.33,WSW,252,0.0,5.0,87,0.00,,,0.00,350.0,meteohub,2013-07-14 12:02:00,
2013-07-14 08:07:00,78.3,74.1,30.33,WNW,296,3.0,8.0,87,0.00,,,0.00,241.0,meteohub,2013-07-14 12:07:00,
2013-07-14 08:12:00,78.3,73.8,30.33,West,263,7.0,8.0,86,0.00,,,0.00,313.0,meteohub,2013-07-14 12:12:00,
2013-07-14 08:17:00,78.1,73.6,30.33,NNW,333,4.0,11.0,86,0.00,,,0.00,357.0,meteohub,2013-07-14 12:17:00,
2013-07-14 08:22:00,78.3,73.8,30.33,NW,315,4.0,11.0,86,0.00,,,0.00,401.0,meteohub,2013-07-14 12:22:00,
2013-07-14 08:27:00,78.4,73.9,30.33,NNW,341,0.0,11.0,86,0.00,,,0.00,265.0,meteohub,2013-07-14 12:27:00,
2013-07-14 08:32:00,78.6,73.8,30.33,WSW,246,5.0,9.0,85,0.00,,,0.00,229.0,meteohub,2013-07-14 12:32:00,
2013-07-14 08:37:00,78.8,73.9,30.33,West,266,3.0,9.0,85,0.00,,,0.00,401.0,meteohub,2013-07-14 12:37:00,
2013-07-14 08:42:00,79.0,74.1,30.33,NNW,330,1.0,10.0,85,0.00,,,0.00,255.0,meteohub,2013-07-14 12:42:00,
2013-07-14 08:47:00,79.0,74.1,30.33,NW,311,1.0,10.0,85,0.00,,,0.00,538.0,meteohub,2013-07-14 12:47:00,
2013-07-14 08:52:00,79.2,74.3,30.33,West,279,1.0,9.0,85,0.00,,,0.00,387.0,meteohub,2013-07-14 12:52:00,
2013-07-14 08:57:00,79.3,74.1,30.33,WNW,300,0.0,9.0,84,0.00,,,0.00,454.0,meteohub,2013-07-14 12:57:00,
2013-07-14 09:02:00,79.3,74.1,30.33,NW,314,8.0,9.0,84,0.00,,,0.00,225.0,meteohub,2013-07-14 13:02:00,
2013-07-14 09:07:00,79.3,74.1,30.33,West,280,5.0,9.0,84,0.00,,,0.00,538.0,meteohub,2013-07-14 13:07:00,
2013-07-14 09:12:00,79.7,74.1,30.33,North,355,2.0,9.0,83,0.00,,,0.00,633.0,meteohub,2013-07-14 13:12:00,
2013-07-14 09:17:00,79.7,74.1,30.33,WSW,245,1.0,13.0,83,0.00,,,0.00,192.0,meteohub,2013-07-14 13:17:00,
2013-07-14 09:22:00,79.9,74.3,30.32,WSW,244,3.0,13.0,83,0.00,,,0.00,299.0,meteohub,2013-07-14 13:22:00,
2013-07-14 09:27:00,79.9,73.9,30.32,West,275,2.0,13.0,82,0.00,,,0.00,320.0,meteohub,2013-07-14 13:27:00,
2013-07-14 09:32:00,80.1,74.1,30.32,SSW,205,5.0,10.0,82,0.00,,,0.00,415.0,meteohub,2013-07-14 13:32:00,
2013-07-14 09:37:00,80.4,74.1,30.32,WNW,302,2.0,10.0,81,0.00,,,0.00,415.0,meteohub,2013-07-14 13:37:00,
2013-07-14 09:42:00,80.4,74.1,30.32,WSW,241,4.0,10.0,81,0.00,,,0.00,564.0,meteohub,2013-07-14 13:42:00,
2013-07-14 09:47:00,80.6,74.3,30.32,North,351,3.0,10.0,81,0.00,,,0.00,675.0,meteohub,2013-07-14 13:47:00,
2013-07-14 09:52:00,81.3,74.5,30.32,SW,233,6.0,10.0,80,0.00,,,0.00,819.0,meteohub,2013-07-14 13:52:00,
2013-07-14 09:57:00,81.3,74.1,30.32,SSW,212,7.0,10.0,79,0.00,,,0.00,770.0,meteohub,2013-07-14 13:57:00,
2013-07-14 10:03:00,81.3,73.8,30.32,NW,317,8.0,10.0,78,0.00,,,0.00,388.0,meteohub,2013-07-14 14:03:00,
2013-07-14 10:08:00,81.1,74.3,30.32,NW,324,4.0,14.0,80,0.00,,,0.00,789.0,meteohub,2013-07-14 14:08:00,
2013-07-14 10:13:00,81.5,74.3,30.32,NNE,15,4.0,14.0,79,0.00,,,0.00,744.0,meteohub,2013-07-14 14:13:00,
2013-07-14 10:18:00,81.9,73.9,30.32,West,278,4.0,14.0,77,0.00,,,0.00,548.0,meteohub,2013-07-14 14:18:00,
2013-07-14 10:23:00,81.7,74.1,30.32,WNW,283,5.0,11.0,78,0.00,,,0.00,380.0,meteohub,2013-07-14 14:23:00,
2013-07-14 10:28:00,81.3,73.8,30.32,WSW,251,0.0,11.0,78,0.00,,,0.00,299.0,meteohub,2013-07-14 14:28:00,
2013-07-14 10:33:00,81.3,74.1,30.32,NNW,330,0.0,11.0,79,0.00,,,0.00,301.0,meteohub,2013-07-14 14:33:00,
2013-07-14 10:39:00,81.5,74.3,30.32,NW,325,6.0,9.0,79,0.00,,,0.00,696.0,meteohub,2013-07-14 14:39:00,
2013-07-14 10:44:00,81.7,74.1,30.32,NW,320,4.0,9.0,78,0.00,,,0.00,355.0,meteohub,2013-07-14 14:44:00,
2013-07-14 10:49:00,81.7,74.1,30.32,WSW,258,3.0,9.0,78,0.00,,,0.00,935.0,meteohub,2013-07-14 14:49:00,
2013-07-14 10:54:00,82.6,74.7,30.32,SW,219,7.0,9.0,77,0.00,,,0.00,995.0,meteohub,2013-07-14 14:54:00,
2013-07-14 10:59:00,82.9,74.1,30.32,West,265,5.0,9.0,75,0.00,,,0.00,1009.0,meteohub,2013-07-14 14:59:00,
2013-07-14 11:04:00,82.8,73.6,30.32,North,0,4.0,11.0,74,0.00,,,0.00,747.0,meteohub,2013-07-14 15:04:00,
2013-07-14 11:09:00,82.9,73.4,30.32,West,265,3.0,13.0,73,0.00,,,0.00,722.0,meteohub,2013-07-14 15:09:00,
2013-07-14 11:14:00,83.1,73.9,30.32,WNW,292,3.0,13.0,74,0.00,,,0.00,715.0,meteohub,2013-07-14 15:14:00,
2013-07-14 11:19:00,83.7,74.5,30.32,NNW,337,5.0,10.0,74,0.00,,,0.00,497.0,meteohub,2013-07-14 15:19:00,
2013-07-14 11:25:00,83.5,74.3,30.32,NW,322,5.0,11.0,74,0.00,,,0.00,701.0,meteohub,2013-07-14 15:25:00,
2013-07-14 11:30:00,83.8,74.7,30.32,WNW,288,7.0,11.0,74,0.00,,,0.00,452.0,meteohub,2013-07-14 15:30:00,
2013-07-14 11:35:00,83.7,74.5,30.32,WNW,299,0.0,11.0,74,0.00,,,0.00,807.0,meteohub,2013-07-14 15:35:00,
2013-07-14 11:40:00,83.7,74.5,30.31,NW,314,4.0,10.0,74,0.00,,,0.00,1002.0,meteohub,2013-07-14 15:40:00,
2013-07-14 11:45:00,83.8,74.7,30.31,NW,311,3.0,8.0,74,0.00,,,0.00,854.0,meteohub,2013-07-14 15:45:00,
2013-07-14 11:50:00,84.2,74.7,30.31,WNW,287,8.0,15.0,73,0.00,,,0.00,831.0,meteohub,2013-07-14 15:50:00,
2013-07-14 11:55:00,84.2,74.7,30.31,SW,232,0.0,15.0,73,0.00,,,0.00,895.0,meteohub,2013-07-14 15:55:00,
2013-07-14 12:00:00,84.6,75.0,30.31,WNW,294,5.0,11.0,73,0.00,,,0.00,1028.0,meteohub,2013-07-14 16:00:00,
2013-07-14 12:05:00,85.1,75.4,30.31,SW,222,8.0,10.0,73,0.00,,,0.00,1028.0,meteohub,2013-07-14 16:05:00,
2013-07-14 12:11:00,85.3,75.2,30.31,West,266,3.0,9.0,72,0.00,,,0.00,900.0,meteohub,2013-07-14 16:11:00,
2013-07-14 12:16:00,85.3,74.3,30.31,NW,315,2.0,9.0,70,0.00,,,0.00,745.0,meteohub,2013-07-14 16:16:00,
2013-07-14 12:21:00,85.3,73.9,30.31,NW,308,1.0,10.0,69,0.00,,,0.00,979.0,meteohub,2013-07-14 16:21:00,
2013-07-14 12:26:00,85.5,74.5,30.31,SSW,211,6.0,10.0,70,0.00,,,0.00,860.0,meteohub,2013-07-14 16:26:00,
2013-07-14 12:31:00,85.5,74.1,30.31,NNW,327,7.0,10.0,69,0.00,,,0.00,691.0,meteohub,2013-07-14 16:31:00,
2013-07-14 12:36:00,84.6,74.1,30.31,NW,318,2.0,13.0,71,0.00,,,0.00,909.0,meteohub,2013-07-14 16:36:00,
2013-07-14 12:42:00,84.9,74.5,30.31,SSW,213,5.0,13.0,71,0.00,,,0.00,988.0,meteohub,2013-07-14 16:42:00,
2013-07-14 12:47:00,85.6,74.7,30.31,WSW,240,2.0,13.0,70,0.00,,,0.00,963.0,meteohub,2013-07-14 16:47:00,
2013-07-14 12:52:00,85.5,74.5,30.31,NW,310,4.0,11.0,70,0.00,,,0.00,1074.0,meteohub,2013-07-14 16:52:00,
2013-07-14 12:57:00,85.5,75.0,30.31,WSW,255,2.0,9.0,71,0.00,,,0.00,1023.0,meteohub,2013-07-14 16:57:00,
2013-07-14 13:02:00,85.8,74.8,30.31,WNW,288,3.0,9.0,70,0.00,,,0.00,937.0,meteohub,2013-07-14 17:02:00,
2013-07-14 13:07:00,85.6,74.7,30.30,West,275,4.0,8.0,70,0.00,,,0.00,348.0,meteohub,2013-07-14 17:07:00,
2013-07-14 13:12:00,85.5,74.5,30.30,West,275,0.0,8.0,70,0.00,,,0.00,1053.0,meteohub,2013-07-14 17:12:00,
2013-07-14 13:17:00,85.6,74.3,30.31,NNW,337,5.0,9.0,69,0.00,,,0.00,853.0,meteohub,2013-07-14 17:17:00,
2013-07-14 13:22:00,85.6,74.7,30.30,WNW,282,1.0,11.0,70,0.00,,,0.00,258.0,meteohub,2013-07-14 17:22:00,
2013-07-14 13:27:00,85.8,74.5,30.30,West,281,6.0,11.0,69,0.00,,,0.00,956.0,meteohub,2013-07-14 17:27:00,
2013-07-14 13:32:00,86.5,75.2,30.30,SW,223,4.0,9.0,69,0.00,,,0.00,1005.0,meteohub,2013-07-14 17:32:00,
2013-07-14 13:37:00,86.5,74.3,30.30,SSW,213,7.0,9.0,67,0.00,,,0.00,967.0,meteohub,2013-07-14 17:37:00,
2013-07-14 13:42:00,86.9,74.7,30.30,NW,313,0.0,11.0,67,0.00,,,0.00,979.0,meteohub,2013-07-14 17:42:00,
2013-07-14 13:47:00,87.4,74.3,30.30,NW,310,0.0,11.0,65,0.00,,,0.00,241.0,meteohub,2013-07-14 17:47:00,
2013-07-14 13:52:00,87.1,73.9,30.30,WSW,246,0.0,9.0,65,0.00,,,0.00,313.0,meteohub,2013-07-14 17:52:00,
2013-07-14 13:57:00,87.4,74.7,30.30,NW,321,0.0,7.0,66,0.00,,,0.00,1104.0,meteohub,2013-07-14 17:57:00,
2013-07-14 14:02:00,88.2,74.8,30.30,WNW,302,2.0,7.0,65,0.00,,,0.00,1107.0,meteohub,2013-07-14 18:02:00,
2013-07-14 14:07:00,88.3,74.1,30.30,West,279,2.0,5.0,63,0.00,,,0.00,1107.0,meteohub,2013-07-14 18:07:00,
2013-07-14 14:12:00,88.9,74.7,30.29,North,355,2.0,8.0,63,0.00,,,0.00,1127.0,meteohub,2013-07-14 18:12:00,
2013-07-14 14:17:00,88.9,74.1,30.29,WNW,303,0.0,8.0,62,0.00,,,0.00,294.0,meteohub,2013-07-14 18:17:00,
2013-07-14 14:22:00,88.5,74.3,30.29,NW,317,1.0,9.0,63,0.00,,,0.00,192.0,meteohub,2013-07-14 18:22:00,
2013-07-14 14:27:00,87.8,74.5,30.29,NW,312,4.0,9.0,65,0.00,,,0.00,322.0,meteohub,2013-07-14 18:27:00,
2013-07-14 14:32:00,87.4,74.7,30.29,SW,215,1.0,6.0,66,0.00,,,0.00,302.0,meteohub,2013-07-14 18:32:00,
2013-07-14 14:37:00,87.6,74.8,30.29,NW,307,0.0,6.0,66,0.00,,,0.00,385.0,meteohub,2013-07-14 18:37:00,
2013-07-14 14:42:00,87.6,74.8,30.29,NW,309,0.0,6.0,66,0.00,,,0.00,647.0,meteohub,2013-07-14 18:42:00,
2013-07-14 14:47:00,88.2,74.8,30.29,ESE,106,4.0,4.0,65,0.00,,,0.00,661.0,meteohub,2013-07-14 18:47:00,
2013-07-14 14:52:00,88.9,76.1,30.29,ESE,113,1.0,6.0,66,0.00,,,0.00,837.0,meteohub,2013-07-14 18:52:00,
2013-07-14 14:58:00,89.1,76.3,30.29,SE,134,3.0,6.0,66,0.00,,,0.00,371.0,meteohub,2013-07-14 18:58:00,
2013-07-14 15:03:00,89.2,76.5,30.28,ESE,105,0.0,7.0,66,0.00,,,0.00,563.0,meteohub,2013-07-14 19:03:00,
2013-07-14 15:08:00,89.4,76.6,30.28,SE,140,0.0,11.0,66,0.00,,,0.00,824.0,meteohub,2013-07-14 19:08:00,
2013-07-14 15:13:00,90.0,76.6,30.28,ESE,118,0.0,11.0,65,0.00,,,0.00,780.0,meteohub,2013-07-14 19:13:00,
2013-07-14 15:18:00,90.3,77.0,30.28,ESE,122,5.0,7.0,65,0.00,,,0.00,826.0,meteohub,2013-07-14 19:18:00,
2013-07-14 15:23:00,90.5,77.2,30.28,ESE,123,0.0,8.0,65,0.00,,,0.00,172.0,meteohub,2013-07-14 19:23:00,
2013-07-14 15:28:00,90.3,77.0,30.28,SSW,204,0.0,8.0,65,0.00,,,0.00,805.0,meteohub,2013-07-14 19:28:00,
2013-07-14 15:33:00,90.5,77.2,30.28,SE,130,4.0,8.0,65,0.00,,,0.00,766.0,meteohub,2013-07-14 19:33:00,
2013-07-14 15:39:00,91.2,76.8,30.27,ESE,119,4.0,8.0,63,0.00,,,0.00,812.0,meteohub,2013-07-14 19:39:00,
2013-07-14 15:44:00,91.8,76.8,30.27,SE,128,6.0,9.0,62,0.00,,,0.00,798.0,meteohub,2013-07-14 19:44:00,
2013-07-14 15:49:00,92.5,77.0,30.27,East,92,5.0,9.0,61,0.00,,,0.00,766.0,meteohub,2013-07-14 19:49:00,
2013-07-14 15:54:00,92.8,76.8,30.27,SW,223,3.0,9.0,60,0.00,,,0.00,190.0,meteohub,2013-07-14 19:54:00,
2013-07-14 15:59:00,93.2,76.6,30.27,South,178,3.0,7.0,59,0.00,,,0.00,737.0,meteohub,2013-07-14 19:59:00,
2013-07-14 16:04:00,93.7,76.6,30.27,South,185,5.0,7.0,58,0.00,,,0.00,705.0,meteohub,2013-07-14 20:04:00,
2013-07-14 16:09:00,94.5,76.8,30.27,South,169,0.0,6.0,57,0.00,,,0.00,701.0,meteohub,2013-07-14 20:09:00,
2013-07-14 16:14:00,94.3,77.2,30.27,ESE,115,0.0,5.0,58,0.00,,,0.00,691.0,meteohub,2013-07-14 20:14:00,
2013-07-14 16:19:00,93.9,77.4,30.26,SW,222,2.0,5.0,59,0.00,,,0.00,691.0,meteohub,2013-07-14 20:19:00,
2013-07-14 16:25:00,94.3,77.2,30.26,SE,128,0.0,5.0,58,0.00,,,0.00,663.0,meteohub,2013-07-14 20:25:00,
2013-07-14 16:30:00,94.5,75.2,30.26,South,182,0.0,5.0,54,0.00,,,0.00,621.0,meteohub,2013-07-14 20:30:00,
2013-07-14 16:35:00,94.5,76.8,30.26,SSW,195,5.0,7.0,57,0.00,,,0.00,617.0,meteohub,2013-07-14 20:35:00,
2013-07-14 16:40:00,94.5,76.8,30.26,SSE,165,1.0,7.0,57,0.00,,,0.00,601.0,meteohub,2013-07-14 20:40:00,
2013-07-14 16:45:00,94.6,77.0,30.26,ESE,123,5.0,8.0,57,0.00,,,0.00,476.0,meteohub,2013-07-14 20:45:00,
2013-07-14 16:50:00,94.3,76.6,30.25,SSE,167,2.0,8.0,57,0.00,,,0.00,526.0,meteohub,2013-07-14 20:50:00,
2013-07-14 16:55:00,93.9,76.8,30.25,WSW,258,0.0,8.0,58,0.00,,,0.00,490.0,meteohub,2013-07-14 20:55:00,
2013-07-14 17:00:00,93.6,77.0,30.25,SE,131,0.0,8.0,59,0.00,,,0.00,512.0,meteohub,2013-07-14 21:00:00,
2013-07-14 17:05:00,93.0,76.6,30.25,SE,133,3.0,8.0,59,0.00,,,0.00,512.0,meteohub,2013-07-14 21:05:00,
2013-07-14 17:11:00,91.9,76.1,30.25,SE,137,0.0,9.0,60,0.00,,,0.00,499.0,meteohub,2013-07-14 21:11:00,
2013-07-14 17:16:00,91.2,76.3,30.25,ESE,117,0.0,9.0,62,0.00,,,0.00,476.0,meteohub,2013-07-14 21:16:00,
2013-07-14 17:21:00,90.9,76.5,30.25,SSW,197,2.0,9.0,63,0.00,,,0.00,454.0,meteohub,2013-07-14 21:21:00,
2013-07-14 17:26:00,91.0,76.3,30.25,SSW,205,1.0,9.0,62,0.00,,,0.00,452.0,meteohub,2013-07-14 21:26:00,
2013-07-14 17:31:00,91.2,76.3,30.25,SSW,192,6.0,9.0,62,0.00,,,0.00,438.0,meteohub,2013-07-14 21:31:00,
2013-07-14 17:36:00,91.6,76.6,30.25,ESE,120,0.0,10.0,62,0.00,,,0.00,411.0,meteohub,2013-07-14 21:36:00,
2013-07-14 17:41:00,91.2,76.3,30.25,SSW,195,5.0,10.0,62,0.00,,,0.00,394.0,meteohub,2013-07-14 21:41:00,
2013-07-14 17:46:00,91.4,76.5,30.25,South,178,0.0,9.0,62,0.00,,,0.00,385.0,meteohub,2013-07-14 21:46:00,
2013-07-14 17:51:00,91.8,76.5,30.24,SSW,194,6.0,9.0,61,0.00,,,0.00,369.0,meteohub,2013-07-14 21:51:00,
2013-07-14 17:57:00,91.0,76.3,30.24,SE,132,0.0,8.0,62,0.00,,,0.00,353.0,meteohub,2013-07-14 21:57:00,
2013-07-14 18:02:00,91.0,76.6,30.24,SSW,194,2.0,8.0,63,0.00,,,0.00,341.0,meteohub,2013-07-14 22:02:00,
2013-07-14 18:07:00,91.4,76.5,30.24,SSW,196,4.0,8.0,62,0.00,,,0.00,313.0,meteohub,2013-07-14 22:07:00,
2013-07-14 18:12:00,91.4,76.5,30.24,South,171,1.0,8.0,62,0.00,,,0.00,297.0,meteohub,2013-07-14 22:12:00,
2013-07-14 18:17:00,91.2,76.3,30.24,South,189,6.0,8.0,62,0.00,,,0.00,287.0,meteohub,2013-07-14 22:17:00,
2013-07-14 18:22:00,91.2,76.3,30.24,South,177,5.0,8.0,62,0.00,,,0.00,79.0,meteohub,2013-07-14 22:22:00,
2013-07-14 18:27:00,90.5,76.1,30.24,South,178,1.0,9.0,63,0.00,,,0.00,255.0,meteohub,2013-07-14 22:27:00,
2013-07-14 18:32:00,90.0,76.1,30.24,SSW,201,0.0,10.0,64,0.00,,,0.00,239.0,meteohub,2013-07-14 22:32:00,
2013-07-14 18:37:00,89.6,76.3,30.24,SSW,208,0.0,10.0,65,0.00,,,0.00,227.0,meteohub,2013-07-14 22:37:00,
2013-07-14 18:38:00,89.8,76.5,30.24,South,179,0.0,10.0,65,0.00,,,0.00,223.0,meteohub,2013-07-14 22:38:00,
2013-07-14 18:43:00,90.0,76.1,30.24,SSW,196,1.0,10.0,64,0.00,,,0.00,207.0,meteohub,2013-07-14 22:43:00,
2013-07-14 18:48:00,89.6,76.3,30.24,SSE,163,0.0,7.0,65,0.00,,,0.00,192.0,meteohub,2013-07-14 22:48:00,
2013-07-14 18:53:00,89.4,76.1,30.24,SSW,192,3.0,9.0,65,0.00,,,0.00,172.0,meteohub,2013-07-14 22:53:00,
2013-07-14 18:58:00,89.8,76.5,30.24,South,183,0.0,9.0,65,0.00,,,0.00,162.0,meteohub,2013-07-14 22:58:00,
2013-07-14 19:04:00,89.6,76.3,30.24,South,188,0.0,9.0,65,0.00,,,0.00,141.0,meteohub,2013-07-14 23:04:00,
2013-07-14 19:09:00,89.8,76.5,30.24,South,191,1.0,6.0,65,0.00,,,0.00,127.0,meteohub,2013-07-14 23:09:00,
2013-07-14 19:14:00,89.4,76.6,30.23,ESE,121,0.0,7.0,66,0.00,,,0.00,113.0,meteohub,2013-07-14 23:14:00,
2013-07-14 19:19:00,89.2,76.5,30.23,South,179,4.0,8.0,66,0.00,,,0.00,97.0,meteohub,2013-07-14 23:19:00,
2013-07-14 19:24:00,89.1,76.6,30.23,South,183,1.0,8.0,67,0.00,,,0.00,84.0,meteohub,2013-07-14 23:24:00,
2013-07-14 19:29:00,88.7,76.3,30.23,South,184,1.0,6.0,67,0.00,,,0.00,70.0,meteohub,2013-07-14 23:29:00,
2013-07-14 19:34:00,88.3,76.5,30.23,South,186,0.0,6.0,68,0.00,,,0.00,60.0,meteohub,2013-07-14 23:34:00,
2013-07-14 19:39:00,88.0,76.5,30.23,SSW,197,0.0,6.0,69,0.00,,,0.00,49.0,meteohub,2013-07-14 23:39:00,
2013-07-14 19:45:00,87.4,75.9,30.23,South,186,0.0,7.0,69,0.00,,,0.00,40.0,meteohub,2013-07-14 23:45:00,
2013-07-14 19:50:00,87.3,76.3,30.23,South,188,2.0,7.0,70,0.00,,,0.00,32.0,meteohub,2013-07-14 23:50:00,
2013-07-14 19:55:00,86.7,76.1,30.23,South,178,3.0,7.0,71,0.00,,,0.00,26.0,meteohub,2013-07-14 23:55:00,
2013-07-14 20:00:00,86.0,75.9,30.24,South,190,1.0,7.0,72,0.00,,,0.00,21.0,meteohub,2013-07-15 00:00:00,
2013-07-14 20:05:00,85.6,75.9,30.23,South,182,0.0,7.0,73,0.00,,,0.00,18.0,meteohub,2013-07-15 00:05:00,
2013-07-14 20:10:00,85.1,75.9,30.23,South,178,0.0,5.0,74,0.00,,,0.00,12.0,meteohub,2013-07-15 00:10:00,
2013-07-14 20:15:00,84.6,75.7,30.23,South,180,5.0,5.0,75,0.00,,,0.00,9.0,meteohub,2013-07-15 00:15:00,
2013-07-14 20:20:00,84.0,75.6,30.23,South,180,0.0,5.0,76,0.00,,,0.00,7.0,meteohub,2013-07-15 00:20:00,
2013-07-14 20:25:00,83.7,75.7,30.23,SSW,195,0.0,5.0,77,0.00,,,0.00,0.0,meteohub,2013-07-15 00:25:00,
2013-07-14 20:30:00,83.3,75.4,30.24,SSE,158,2.0,6.0,77,0.00,,,0.00,0.0,meteohub,2013-07-15 00:30:00,
2013-07-14 20:36:00,82.9,75.4,30.23,South,181,0.0,6.0,78,0.00,,,0.00,0.0,meteohub,2013-07-15 00:36:00,
2013-07-14 20:41:00,82.6,75.4,30.23,South,188,0.0,6.0,79,0.00,,,0.00,0.0,meteohub,2013-07-15 00:41:00,
2013-07-14 20:46:00,82.2,75.4,30.23,SSW,196,1.0,7.0,80,0.00,,,0.00,0.0,meteohub,2013-07-15 00:46:00,
2013-07-14 20:51:00,82.0,75.2,30.24,South,190,0.0,7.0,80,0.00,,,0.00,0.0,meteohub,2013-07-15 00:51:00,
2013-07-14 20:56:00,81.9,75.0,30.24,SSW,192,1.0,7.0,80,0.00,,,0.00,0.0,meteohub,2013-07-15 00:56:00,
2013-07-14 21:01:00,81.7,75.2,30.24,SSW,192,4.0,6.0,81,0.00,,,0.00,0.0,meteohub,2013-07-15 01:01:00,
2013-07-14 21:06:00,81.7,75.2,30.24,South,189,3.0,8.0,81,0.00,,,0.00,0.0,meteohub,2013-07-15 01:06:00,
2013-07-14 21:11:00,81.3,74.8,30.24,SSW,207,2.0,8.0,81,0.00,,,0.00,0.0,meteohub,2013-07-15 01:11:00,
2013-07-14 21:17:00,81.3,74.8,30.24,South,187,0.0,8.0,81,0.00,,,0.00,0.0,meteohub,2013-07-15 01:17:00,
2013-07-14 21:22:00,81.3,74.8,30.24,South,187,0.0,6.0,81,0.00,,,0.00,0.0,meteohub,2013-07-15 01:22:00,
2013-07-14 21:27:00,81.7,75.2,30.24,SSW,198,0.0,4.0,81,0.00,,,0.00,0.0,meteohub,2013-07-15 01:27:00,
2013-07-14 21:32:00,81.9,75.0,30.24,SSW,198,0.0,3.0,80,0.00,,,0.00,0.0,meteohub,2013-07-15 01:32:00,
2013-07-14 21:37:00,81.9,74.7,30.25,SSW,201,0.0,1.0,79,0.00,,,0.00,0.0,meteohub,2013-07-15 01:37:00,
2013-07-14 21:42:00,81.9,74.7,30.25,SSW,213,3.0,3.0,79,0.00,,,0.00,0.0,meteohub,2013-07-15 01:42:00,
2013-07-14 21:47:00,81.9,74.3,30.25,SW,223,0.0,5.0,78,0.00,,,0.00,0.0,meteohub,2013-07-15 01:47:00,
2013-07-14 21:52:00,81.9,74.3,30.25,SW,235,0.0,5.0,78,0.00,,,0.00,0.0,meteohub,2013-07-15 01:52:00,
2013-07-14 21:57:00,81.9,74.3,30.25,SW,214,1.0,5.0,78,0.00,,,0.00,0.0,meteohub,2013-07-15 01:57:00,
2013-07-14 22:02:00,81.9,73.9,30.25,SW,226,1.0,5.0,77,0.00,,,0.00,0.0,meteohub,2013-07-15 02:02:00,
2013-07-14 22:07:00,81.7,73.8,30.25,SW,232,1.0,6.0,77,0.00,,,0.00,0.0,meteohub,2013-07-15 02:07:00,
2013-07-14 22:12:00,81.7,73.8,30.25,SW,221,3.0,6.0,77,0.00,,,0.00,0.0,meteohub,2013-07-15 02:12:00,
2013-07-14 22:17:00,81.7,73.8,30.25,SW,220,3.0,6.0,77,0.00,,,0.00,0.0,meteohub,2013-07-15 02:17:00,
2013-07-14 22:22:00,81.5,73.6,30.25,SSW,209,0.0,6.0,77,0.00,,,0.00,0.0,meteohub,2013-07-15 02:22:00,
2013-07-14 22:27:00,81.3,73.4,30.25,SW,219,0.0,6.0,77,0.00,,,0.00,0.0,meteohub,2013-07-15 02:27:00,
2013-07-14 22:32:00,81.3,73.4,30.25,SSW,205,1.0,5.0,77,0.00,,,0.00,0.0,meteohub,2013-07-15 02:32:00,
2013-07-14 22:37:00,81.1,73.2,30.25,SSW,212,0.0,4.0,77,0.00,,,0.00,0.0,meteohub,2013-07-15 02:37:00,
2013-07-14 22:42:00,81.1,73.2,30.25,WSW,244,0.0,4.0,77,0.00,,,0.00,0.0,meteohub,2013-07-15 02:42:00,
2013-07-14 22:47:00,81.1,73.2,30.25,West,277,0.0,4.0,77,0.00,,,0.00,0.0,meteohub,2013-07-15 02:47:00,
2013-07-14 22:52:00,81.0,73.4,30.25,SW,231,0.0,6.0,78,0.00,,,0.00,0.0,meteohub,2013-07-15 02:52:00,
2013-07-14 22:57:00,81.0,73.4,30.25,SW,217,3.0,6.0,78,0.00,,,0.00,0.0,meteohub,2013-07-15 02:57:00,
2013-07-14 23:02:00,80.8,73.2,30.25,WSW,246,4.0,6.0,78,0.00,,,0.00,0.0,meteohub,2013-07-15 03:02:00,
2013-07-14 23:07:00,80.6,73.0,30.25,SW,217,5.0,6.0,78,0.00,,,0.00,0.0,meteohub,2013-07-15 03:07:00,
2013-07-14 23:12:00,80.4,73.2,30.24,SSW,204,1.0,6.0,79,0.00,,,0.00,0.0,meteohub,2013-07-15 03:12:00,
2013-07-14 23:17:00,80.2,73.0,30.24,SSW,200,2.0,6.0,79,0.00,,,0.00,0.0,meteohub,2013-07-15 03:17:00,
2013-07-14 23:22:00,80.2,73.0,30.24,WSW,244,0.0,6.0,79,0.00,,,0.00,0.0,meteohub,2013-07-15 03:22:00,
2013-07-14 23:27:00,80.2,73.6,30.24,SW,235,0.0,6.0,80,0.00,,,0.00,0.0,meteohub,2013-07-15 03:27:00,
2013-07-14 23:32:00,80.1,73.4,30.24,SSW,206,4.0,7.0,80,0.00,,,0.00,0.0,meteohub,2013-07-15 03:32:00,
2013-07-14 23:37:00,80.1,73.4,30.24,WSW,237,5.0,7.0,80,0.00,,,0.00,0.0,meteohub,2013-07-15 03:37:00,
2013-07-14 23:42:00,79.9,73.6,30.24,WSW,244,4.0,8.0,81,0.00,,,0.00,0.0,meteohub,2013-07-15 03:42:00,
2013-07-14 23:47:00,79.9,73.6,30.24,SW,233,0.0,8.0,81,0.00,,,0.00,0.0,meteohub,2013-07-15 03:47:00,
2013-07-14 23:52:00,79.7,73.8,30.24,WSW,239,2.0,8.0,82,0.00,,,0.00,0.0,meteohub,2013-07-15 03:52:00,
2013-07-14 23:57:00,79.5,73.6,30.24,SW,215,0.0,7.0,82,0.00,,,0.00,0.0,meteohub,2013-07-15 03:57:00,